| time (UTC) | temp F | wind direction | speed MPH | gust MPH | rain 1hr in | rain 24hr in | rain mn in | humidity % | barometer mb |
| 20260504173054 | 58 | 0 | 2.0 | 4.0 | 0.00 | 0.00 | 0.00 | 33 | 1010.6 |
| 20260504171555 | 57 | 51 | 0.0 | 4.0 | 0.00 | 0.00 | 0.00 | 39 | 1010.9 |
| 20260504081559 | 30 | 0 | 0.0 | 0.0 | 0.00 | 0.00 | 0.00 | 81 | 1011.4 |
| 20260504070104 | 30 | 0 | 0.0 | 0.0 | 0.00 | 0.00 | 0.00 | 82 | 1011.9 |
| 20260504060108 | 31 | 0 | 0.0 | 0.0 | 0.00 | 0.00 | 0.00 | 61 | 1011.9 |
| 20260504050107 | 35 | 0 | 0.0 | 2.0 | 0.00 | 0.00 | 0.00 | 60 | 1012.0 |
| 20260504044605 | 36 | 0 | 0.0 | 1.0 | 0.00 | 0.00 | 0.00 | 66 | 1012.1 |
| 20260504043059 | 37 | 0 | 1.0 | 3.0 | 0.00 | 0.00 | 0.00 | 58 | 1012.1 |
| 20260504041603 | 38 | 0 | 0.0 | 2.0 | 0.00 | 0.00 | 0.00 | 54 | 1012.2 |
| 20260504034615 | 43 | 0 | 0.0 | 3.0 | 0.00 | 0.00 | 0.00 | 59 | 1012.1 |
| 20260504033112 | 43 | 288 | 0.0 | 2.0 | 0.00 | 0.00 | 0.00 | 54 | 1011.8 |
| 20260504031555 | 45 | 288 | 0.0 | 4.0 | 0.00 | 0.00 | 0.00 | 49 | 1011.9 |
| 20260504030056 | 46 | 0 | 0.0 | 4.0 | 0.00 | 0.00 | 0.00 | 38 | 1011.8 |
| 20260504024556 | 47 | 288 | 0.0 | 2.0 | 0.00 | 0.00 | 0.00 | 35 | 1011.6 |
| 20260504023056 | 50 | 0 | 0.0 | 3.0 | 0.00 | 0.00 | 0.00 | 18 | 1011.5 |
| 20260504021556 | 53 | 0 | 0.0 | 3.0 | 0.00 | 0.00 | 0.00 | 28 | 1011.4 |
| 20260504020057 | 54 | 288 | 1.0 | 3.0 | 0.00 | 0.00 | 0.00 | 22 | 1011.4 |
| 20260504014616 | 57 | 288 | 2.0 | 5.0 | 0.00 | 0.00 | 0.00 | 12 | 1011.4 |
| 20260504013104 | 60 | 207 | 1.0 | 9.0 | 0.00 | 0.00 | 0.00 | 18 | 1011.4 |
| 20260504011559 | 62 | 261 | 4.0 | 15.0 | 0.00 | 0.00 | 0.00 | 13 | 1011.6 |
| 20260504010059 | 63 | 264 | 5.0 | 9.0 | 0.00 | 0.00 | 0.00 | 13 | 1011.3 |
| 20260504004555 | 63 | 248 | 5.0 | 11.0 | 0.00 | 0.00 | 0.00 | 15 | 1011.4 |
| 20260504003100 | 63 | 268 | 4.0 | 15.0 | 0.00 | 0.00 | 0.00 | 15 | 1011.6 |
| 20260504001609 | 64 | 287 | 6.0 | 13.0 | 0.00 | 0.00 | 0.00 | 13 | 1011.6 |
| 20260504000057 | 64 | 247 | 7.0 | 16.0 | 0.00 | 0.00 | 0.00 | 12 | 1011.6 |
| 20260503234555 | 65 | 273 | 12.0 | 17.0 | 0.00 | 0.00 | 0.00 | 10 | 1011.7 |
| 20260503233054 | 66 | 269 | 7.0 | 19.0 | 0.00 | 0.00 | 0.00 | 12 | 1011.8 |
| 20260503231558 | 66 | 233 | 9.0 | 18.0 | 0.00 | 0.00 | 0.00 | 10 | 1011.8 |
| 20260503230059 | 66 | 234 | 7.0 | 18.0 | 0.00 | 0.00 | 0.00 | 14 | 1011.8 |
| 20260503224554 | 67 | 298 | 9.0 | 18.0 | 0.00 | 0.00 | 0.00 | 12 | 1011.6 |
| 20260503223058 | 66 | 272 | 13.0 | 21.0 | 0.00 | 0.00 | 0.00 | 14 | 1011.8 |
| 20260503221553 | 67 | 242 | 9.0 | 21.0 | 0.00 | 0.00 | 0.00 | 12 | 1012.0 |
| 20260503214554 | 66 | 289 | 9.0 | 20.0 | 0.00 | 0.00 | 0.00 | 14 | 1012.7 |
| 20260503213107 | 66 | 284 | 10.0 | 20.0 | 0.00 | 0.00 | 0.00 | 19 | 1012.9 |
| 20260503211555 | 67 | 288 | 7.0 | 17.0 | 0.00 | 0.00 | 0.00 | 9 | 1013.1 |
| 20260503204556 | 66 | 296 | 8.0 | 20.0 | 0.00 | 0.00 | 0.00 | 18 | 1013.5 |
| 20260503203104 | 66 | 284 | 9.0 | 20.0 | 0.00 | 0.00 | 0.00 | 17 | 1013.9 |
| 20260503201558 | 66 | 294 | 8.0 | 19.0 | 0.00 | 0.00 | 0.00 | 17 | 1014.0 |
| 20260503194555 | 66 | 248 | 10.0 | 19.0 | 0.00 | 0.00 | 0.00 | 16 | 1014.4 |
| 20260503193111 | 65 | 262 | 13.0 | 25.0 | 0.00 | 0.00 | 0.00 | 18 | 1014.5 |
| 20260503191603 | 65 | 257 | 10.0 | 24.0 | 0.00 | 0.00 | 0.00 | 18 | 1014.7 |
| 20260503190057 | 64 | 298 | 10.0 | 19.0 | 0.00 | 0.00 | 0.00 | 18 | 1015.0 |
| 20260503184607 | 63 | 294 | 10.0 | 20.0 | 0.00 | 0.00 | 0.00 | 18 | 1015.4 |
| 20260503183109 | 63 | 256 | 9.0 | 17.0 | 0.00 | 0.00 | 0.00 | 19 | 1015.6 |
| 20260503181608 | 63 | 311 | 7.0 | 16.0 | 0.00 | 0.00 | 0.00 | 19 | 1015.8 |
| 20260503180058 | 63 | 289 | 9.0 | 19.0 | 0.00 | 0.00 | 0.00 | 21 | 1015.9 |
| 20260503174556 | 63 | 269 | 6.0 | 14.0 | 0.00 | 0.00 | 0.00 | 20 | 1016.2 |